Clermont/Ferrand, France

4:09 AM CET on December 09, 2016 (GMT +0100)
Clermont-Ferrand / Auvergne

Weather History for LFLC - November, 2013

Change the Weather History Date:

Wednesday, November 13, 2013

  Actual Average Record
Temperature  
Mean Temperature 44 °F -  
Max Temperature 46 °F 47 °F 68 °F (2010)
Min Temperature 43 °F 34 °F 24 °F (2007)
Degree Days  
Heating Degree Days 20    
Moisture  
Dew Point 43 °F    
Average Humidity 91    
Maximum Humidity 100    
Minimum Humidity 71    
Precipitation  
Precipitation 0.04 in - - ()
Sea Level Pressure  
Sea Level Pressure 30.33 in    
Wind  
Wind Speed 5 mph ()    
Max Wind Speed 10 mph    
Max Gust Speed -    
Visibility 4.0 miles    
Events Rain    
Averages and records for this station are not official NWS values.
T = Trace of Precipitation, MM = Missing Value Source: Averaged Metar Reports

Daily Weather History Graph

Daily Weather History Graph

Search for Another Location

Airport or City:

Trip Planner

Search our weather history database for the weather conditions in past years. The results will help you decide how hot, cold, wet, or windy it might be!

Date:

Astronomy

Nov. 13, 2013 Rise Set
Actual Time 7:44 AM CET 5:18 PM CET
Civil Twilight 7:12 AM CET 5:50 PM CET
Nautical Twilight 6:36 AM CET 6:26 PM CET
Astronomical Twilight 6:01 AM CET 7:01 PM CET
Moon 3:08 PM CET (11/13) 3:08 AM CET (11/13)
Length of Visible Light 10h 38m
Length of Day
9h 33m
Waxing Gibbous, 82% of the Moon is Illuminated
Nov 13
Waxing Gibbous
Nov 17
Full
Nov 25
Last Quarter
Dec 3
New
Dec 9
First Quarter

Hourly Weather History & Observations

Time (CET) Temp. Windchill Dew Point Humidity Pressure Visibility Wind Dir Wind Speed Gust Speed Precip Events Conditions
12:00 AM 48.2 °F - 39.2 °F 71% 30.30 in 6.2 mi Variable 2.3 mph - N/A   Mostly Cloudy
12:30 AM 48.2 °F - 41.0 °F 76% 30.30 in 6.2 mi Variable 2.3 mph - N/A   Mostly Cloudy
1:00 AM 46 °F - 42 °F 79% 30.33 in 9 mi WNW 4.6 mph - -   Mostly Cloudy
1:00 AM 46.4 °F 43.5 °F 41.0 °F 81% 30.30 in 6.2 mi NW 5.8 mph - N/A   Mostly Cloudy
1:30 AM 46.4 °F 45.2 °F 42.8 °F 87% 30.30 in 6.2 mi Variable 3.5 mph - N/A   Overcast
2:00 AM 46.4 °F - 42.8 °F 87% 30.30 in 6.2 mi Calm Calm - N/A   Overcast
2:30 AM 46.4 °F 44.3 °F 42.8 °F 87% 30.30 in 6.2 mi North 4.6 mph - N/A   Overcast
3:00 AM 44.6 °F 42.2 °F 42.8 °F 93% 30.30 in - North 4.6 mph - N/A   Light Drizzle
4:00 AM 44 °F - 43 °F 93% 30.35 in 2 mi North 5.8 mph - - Rain Light Rain
4:00 AM 44.6 °F 41.4 °F 42.8 °F 93% 30.30 in 1.6 mi North 5.8 mph - N/A Rain Light Drizzle
4:30 AM 44.6 °F 42.2 °F 42.8 °F 93% 30.30 in 1.6 mi North 4.6 mph - N/A Rain Light Drizzle
5:00 AM 44.6 °F 41.4 °F 42.8 °F 93% 30.30 in 1.6 mi North 5.8 mph - N/A Rain Light Drizzle
5:30 AM 42.8 °F 40.1 °F 42.8 °F 100% 30.30 in 1.2 mi North 4.6 mph - N/A Rain Light Drizzle
6:00 AM 42.8 °F 39.3 °F 42.8 °F 100% 30.30 in 1.2 mi North 5.8 mph - N/A Rain Light Drizzle
6:30 AM 42.8 °F 39.3 °F 42.8 °F 100% 30.30 in 1.6 mi NNW 5.8 mph - N/A Rain Rain
7:00 AM 44 °F - 42 °F 92% 30.35 in 2 mi North 4.6 mph - - Rain Light Rain
7:00 AM 44.6 °F 42.2 °F 42.8 °F 93% 30.30 in 1.9 mi North 4.6 mph - N/A Rain Light Drizzle
7:30 AM 44.6 °F 42.2 °F 42.8 °F 93% 30.33 in 1.9 mi NNW 4.6 mph - N/A Rain Light Drizzle
8:00 AM 44.6 °F 41.4 °F 42.8 °F 93% 30.33 in 2.5 mi NNW 5.8 mph - N/A Rain Light Drizzle
8:30 AM 44.6 °F 42.2 °F 42.8 °F 93% 30.33 in 2.8 mi NNW 4.6 mph - N/A   Light Drizzle
9:00 AM 44.6 °F 40.2 °F 42.8 °F 93% 30.36 in 2.8 mi North 8.1 mph - N/A   Light Drizzle
9:30 AM 44.6 °F 40.2 °F 42.8 °F 93% 30.36 in 2.5 mi North 8.1 mph - N/A   Light Drizzle
10:00 AM 44 °F - 43 °F 93% 30.40 in 4 mi North 6.9 mph - - Rain Light Drizzle
10:00 AM 44.6 °F 40.7 °F 42.8 °F 93% 30.36 in 4.3 mi North 6.9 mph - N/A   Mostly Cloudy
10:30 AM 44.6 °F 41.4 °F 42.8 °F 93% 30.36 in 4.3 mi North 5.8 mph - N/A   Mostly Cloudy
11:00 AM 44.6 °F 42.2 °F 42.8 °F 93% 30.36 in 1.9 mi North 4.6 mph - N/A   Light Drizzle
11:30 AM 44.6 °F 41.4 °F 42.8 °F 93% 30.36 in 3.1 mi North 5.8 mph - N/A   Light Drizzle
12:00 PM 44.6 °F 41.4 °F 42.8 °F 93% 30.36 in 2.8 mi NNE 5.8 mph - N/A   Light Drizzle
12:30 PM 46.4 °F 45.2 °F 44.6 °F 93% 30.33 in 4.3 mi North 3.5 mph - N/A   Light Drizzle
1:00 PM 46 °F - 43 °F 86% 30.37 in 9 mi North 8.1 mph - - Rain Light Drizzle
1:00 PM 46.4 °F 42.9 °F 42.8 °F 87% 30.33 in 6.2 mi North 6.9 mph - N/A   Mostly Cloudy
1:30 PM 46.4 °F 41.5 °F 42.8 °F 87% 30.33 in 6.2 mi North 10.4 mph - N/A   Mostly Cloudy
2:00 PM 46.4 °F 41.5 °F 42.8 °F 87% 30.33 in 6.2 mi North 10.4 mph - N/A   Mostly Cloudy
2:30 PM 46.4 °F 41.9 °F 42.8 °F 87% 30.33 in 6.2 mi North 9.2 mph - N/A   Mostly Cloudy
3:30 PM 46.4 °F 43.5 °F 42.8 °F 87% 30.33 in 3.1 mi North 5.8 mph - N/A   Light Drizzle
4:00 PM 46 °F - 43 °F 85% 30.37 in 4 mi North 6.9 mph - - Rain Light Drizzle
4:00 PM 46.4 °F 42.9 °F 42.8 °F 87% 30.33 in 3.7 mi North 6.9 mph - N/A   Light Drizzle
4:30 PM 46.4 °F 43.5 °F 42.8 °F 87% 30.33 in 3.7 mi North 5.8 mph - N/A   Light Drizzle
5:00 PM 44.6 °F 42.2 °F 42.8 °F 93% 30.33 in 3.1 mi North 4.6 mph - N/A   Light Drizzle
5:30 PM 44.6 °F 43.1 °F 42.8 °F 93% 30.33 in 2.5 mi North 3.5 mph - N/A   Light Drizzle
6:00 PM 44.6 °F 42.2 °F 42.8 °F 93% 30.33 in 2.5 mi North 4.6 mph - N/A   Light Drizzle
6:30 PM 44.6 °F 40.7 °F 42.8 °F 93% 30.33 in 2.5 mi North 6.9 mph - N/A   Light Drizzle
7:00 PM 45 °F - 43 °F 92% 30.36 in 4 mi NNW 6.9 mph - - Rain Light Drizzle
7:00 PM 44.6 °F 40.7 °F 42.8 °F 93% 30.33 in 3.7 mi NNW 6.9 mph - N/A   Light Drizzle
7:30 PM 44.6 °F 40.2 °F 42.8 °F 93% 30.33 in 3.7 mi NNW 8.1 mph - N/A   Light Drizzle
8:00 PM 44.6 °F 40.7 °F 42.8 °F 93% 30.33 in 5.0 mi NNW 6.9 mph - N/A   Light Drizzle
8:30 PM 44.6 °F 41.4 °F 42.8 °F 93% 30.33 in 5.0 mi NNW 5.8 mph - N/A   Light Drizzle
9:00 PM 44.6 °F 41.4 °F 42.8 °F 93% 30.33 in 5.0 mi NNW 5.8 mph - N/A   Light Drizzle
9:30 PM 44.6 °F 42.2 °F 42.8 °F 93% 30.33 in 5.0 mi North 4.6 mph - N/A   Overcast
10:00 PM 45 °F - 42 °F 86% 30.35 in 5 mi North 4.6 mph - -   Partly Cloudy
10:00 PM 44.6 °F 43.1 °F 42.8 °F 93% 30.33 in 5.0 mi North 3.5 mph - N/A   Overcast
10:30 PM 44.6 °F 43.1 °F 42.8 °F 93% 30.30 in 5.0 mi Variable 3.5 mph - N/A   Overcast
11:00 PM 44.6 °F 43.1 °F 42.8 °F 93% 30.30 in 5.0 mi North 3.5 mph - N/A   Overcast
11:34 PM 44.6 °F 42.2 °F 42.8 °F 93% 30.30 in 5.0 mi North 4.6 mph - N/A   Overcast